Hourly Data Report for October 25, 2015

All times are specified in Local Standard Time (LST). Add 1 hour to adjust for Daylight Saving Time where and when it is observed.

PENTICTON A
BRITISH COLUMBIA

49°27'45.000" N
119°36'08.000" W
344.40 m
1126146
71889
YYF

Download Data

Hourly Data (October 2015)
Hourly Data Report for October 25, 2015
Temp Definition
°C
Dew Point Temp Definition
°C
Rel Hum Definition
%
Wind Dir Definition
10's deg

Wind Spd Definition
km/h
Visibility Definition
km
Stn Press Definition
kPa
Hmdx Definition


Wind Chill Definition


Weather Definition


TIME
00:00 Legend Double Dagger 1.7 0.4 91 1 5 24.1 97.80     LegendNANA
01:00 Legend Double Dagger 2.5 0.6 87 1 10 24.1 97.81     Mainly Clear
02:00 Legend Double Dagger 2.7 0.8 87 2 5 24.1 97.79     LegendNANA
03:00 Legend Double Dagger 3.9 0.9 81 1 11 24.1 97.78     LegendNANA
04:00 Legend Double Dagger 3.8 1.2 83 35 10 24.1 97.77     Mostly Cloudy
05:00 Legend Double Dagger 3.9 1.5 84 33 8 24.1 97.72     LegendNANA
06:00 Legend Double Dagger 5.3 2.5 82 34 12 24.1 97.69     Rain Showers
07:00 Legend Double Dagger 4.9 2.8 86 33 13 24.1 97.70     Mostly Cloudy
08:00 Legend Double Dagger 6.8 4.1 83 2 7 24.1 97.68     LegendNANA
09:00 Legend Double Dagger 8.7 4.4 74 34 17 24.1 97.62     LegendNANA
10:00 Legend Double Dagger 9.7 4.3 69 2 19 24.1 97.57     Mostly Cloudy
11:00 Legend Double Dagger 9.5 3.3 65 35 16 24.1 97.47     LegendNANA
12:00 Legend Double Dagger 11.0 4.5 64 2 17 24.1 97.37     LegendNANA
13:00 Legend Double Dagger 10.8 2.7 57 1 16 24.1 97.26     Mostly Cloudy
14:00 Legend Double Dagger 10.7 4.2 64 2 14 24.1 97.17     LegendNANA
15:00 Legend Double Dagger 10.7 4.0 63 36 16 24.1 97.08     LegendNANA
16:00 Legend Double Dagger 9.8 3.1 63 35 10 24.1 97.05     Cloudy
17:00 Legend Double Dagger 9.9 3.4 64 33 11 24.1 96.98     LegendNANA
18:00 Legend Double Dagger 9.1 3.5 68 34 9 24.1 97.00     LegendNANA
19:00 Legend Double Dagger 8.3 3.6 72 34 8 24.1 97.02     Cloudy
20:00 Legend Double Dagger 8.5 3.8 72 2 11 24.1 96.98     LegendNANA
21:00 Legend Double Dagger 9.2 3.4 67 36 6 24.1 96.99     LegendNANA
22:00 Legend Double Dagger 9.6 3.8 67 34 11 24.1 96.94     Cloudy
23:00 Legend Double Dagger 8.9 3.6 69 33 7 24.1 96.95     LegendNANA

Notes on Data Quality.

Legend

  • E = Estimated
  • M = Missing
  • NA = Not Available
  • ‡ = Partner data that is not subject to review by the National Climate Archives
Date modified: